{"data":{"norad_id":65633,"intl_designator":"2025-210M","name":"STARLINK-35103","alt_names":[],"object_type":"PAYLOAD","status":"ACTIVE","operator":null,"country":"US","launch_date":"2025-09-18","launch_site_code":"AFETR","launch_vehicle":null,"mission":null,"orbit_class":"UNKNOWN","rcs_meters":null,"size_class":null,"mass_kg":null,"dimensions":null,"purposes":["comms"],"wikipedia_slug":null,"has_3d_model":false,"image_url":null,"decayed_at":null,"tle_current":{"epoch":"2026-09-20T21:41:59.087040Z","epoch_age_seconds":73605,"freshness":"FRESH","line1":"1 65633U 25210M   26263.90415610  .00018742  00000+0  56449-3 0  9990","line2":"2 65633  53.1579 115.7674 0002587  83.8024 276.3273 15.34395731 57680","mean_motion":15.34395731,"eccentricity":0.0002587,"inclination_deg":53.1579,"raan_deg":115.7674,"arg_perigee_deg":83.8024,"mean_anomaly_deg":276.3273,"bstar":0.00056449,"rev_number":5768,"period_min":93.848019184824,"perigee_km":460.94619995154,"apogee_km":464.4856572568,"semimajor_km":6840.8529286042,"source":"CELESTRAK","updated_at":"2026-09-21T09:00:35.674744Z"}}}